Location: Bacharowice
(49.9333°N, 19.5833°E)
Time: 01:45:43
(UTC+00:00)

Meteor 1-13 Rocket - Pass Details

Date: 11 May 2021
Orbit: 830 x 912 km, 81.3° (Epoch: 22 June)

Event Time Altitude Azimuth Distance (km) Brightness Sun altitude
Exits shadow 22:51:39 48° 187° (S) 1,088 4.3 -21.9°
Maximum altitude 22:53:18 87° 100° (E) 845 4.1 -21.9°
Drops below altitude 10° 22:58:51 10° 13° (NNE) 2,451 7.7 -21.8°
Sets 23:01:16 0° 13° (NNE) 3,388 8.8 -21.7°
